Weather History for Newcastle, WY

Change the Weather History Date:

Friday, August 23, 2013

  Actual Average (KCUT) Record (KCUT)
Temperature  
Mean Temperature 76 °F 63 °F  
Max Temperature 87 °F 77 °F 95 °F (1971)
Min Temperature 64 °F 49 °F 28 °F (1966)
Degree Days  
Heating Degree Days 0 3  
Month to date heating degree days 57  
Since 1 June heating degree days 338  
Since 1 July heating degree days 118  
Cooling Degree Days 10 1  
Month to date cooling degree days 44  
Year to date cooling degree days 151  
Since 1 June cooling degree days 150  
Growing Degree Days 26 (Base 50)    
Moisture  
Dew Point 55 °F    
Average Humidity 52    
Maximum Humidity 78    
Minimum Humidity 27    
Precipitation  
Precipitation 0.00 in 0.07 in 0.76 in (1963)
Month to date precipitation 1.57  
Year to date precipitation 14.34  
Sea Level Pressure  
Sea Level Pressure 29.99 in    
Wind  
Wind Speed 12 mph (SE)    
Max Wind Speed 16 mph    
Max Gust Speed 22 mph    
Visibility 10 miles    
Events      
T = Trace of Precipitation, MM = Missing Value Source: NWS Daily Summary

Daily Weather History Graph

Daily Weather History Graph

Search for Another Location

Airport:

Trip Planner

Search our weather history database for the weather conditions in past years. The results will help you decide how hot, cold, wet, or windy it might be!

Date:

Astronomy

Aug. 23, 2013 Rise Set
Actual Time 6:10 AM MDT 7:47 PM MDT
Civil Twilight 5:40 AM MDT 8:18 PM MDT
Nautical Twilight 5:03 AM MDT 8:55 PM MDT
Astronomical Twilight 4:23 AM MDT 9:34 PM MDT
Moon 8:59 PM MDT (8/23) 9:16 AM MDT (8/23)
Length of Visible Light 14h 37m
Length of Day
13h 37m
Waning Gibbous, 91% of the Moon is Illuminated
Aug 23
Waning Gibbous
Aug 28
Last Quarter
Sep 5
New
Sep 12
First Quarter
Sep 19
Full

Hourly Weather History & Observations

Time (MDT) Temp. Heat Index Dew Point Humidity Pressure Visibility Wind Dir Wind Speed Gust Speed Precip Events Conditions
12:15 AM 68.0 °F - 55.4 °F 64% 30.11 in 10.0 mi ESE 13.8 mph 21.9 mph N/A   Clear
12:35 AM 68.0 °F - 55.4 °F 64% 30.11 in 10.0 mi ESE 13.8 mph - N/A   Clear
12:55 AM 68.0 °F - 53.6 °F 60% 30.11 in 10.0 mi North - - N/A   Clear
1:15 AM 66.2 °F - 55.4 °F 68% 30.11 in 10.0 mi ESE 15.0 mph - N/A   Clear
1:35 AM 64.4 °F - 55.4 °F 73% 30.10 in 10.0 mi ESE 13.8 mph - N/A   Clear
1:55 AM 64.4 °F - 57.2 °F 77% 30.10 in 10.0 mi ESE 15.0 mph - N/A   Clear
2:15 AM 64.4 °F - 57.2 °F 77% 30.10 in 10.0 mi ESE 16.1 mph 20.7 mph N/A   Clear
2:35 AM 64.4 °F - 57.2 °F 77% 30.09 in 10.0 mi ESE 11.5 mph - N/A   Clear
2:55 AM 64.4 °F - 57.2 °F 77% 30.09 in 10.0 mi ESE 12.7 mph - N/A   Clear
3:15 AM 66.2 °F - 59.0 °F 78% 30.08 in 10.0 mi ESE 12.7 mph 18.4 mph N/A   Clear
3:35 AM 66.2 °F - 59.0 °F 78% 30.07 in 10.0 mi East 12.7 mph - N/A   Clear
3:55 AM 66.2 °F - 57.2 °F 73% 30.06 in 10.0 mi East 13.8 mph 19.6 mph N/A   Clear
4:15 AM 68.0 °F - 57.2 °F 68% 30.05 in 10.0 mi ESE 13.8 mph - N/A   Clear
4:35 AM 68.0 °F - 57.2 °F 68% 30.05 in 10.0 mi East 15.0 mph - N/A   Clear
4:55 AM 68.0 °F - 57.2 °F 68% 30.04 in 10.0 mi East 13.8 mph - N/A   Clear
5:15 AM 66.2 °F - 57.2 °F 73% 30.04 in 10.0 mi East 10.4 mph - N/A   Clear
5:35 AM 66.2 °F - 57.2 °F 73% 30.04 in 10.0 mi ESE 11.5 mph - N/A   Clear
5:55 AM 66.2 °F - 57.2 °F 73% 30.04 in 10.0 mi North - - N/A   Clear
6:15 AM 66.2 °F - 57.2 °F 73% 30.03 in 10.0 mi ESE 11.5 mph - N/A   Clear
6:35 AM 66.2 °F - 57.2 °F 73% 30.04 in 10.0 mi ESE 11.5 mph - N/A   Clear
6:55 AM 66.2 °F - 59.0 °F 78% 30.04 in 10.0 mi ESE 9.2 mph - N/A   Clear
7:15 AM 68.0 °F - 59.0 °F 73% 30.04 in 10.0 mi North - - N/A   Clear
7:35 AM 68.0 °F - 59.0 °F 73% 30.03 in 10.0 mi East 8.1 mph - N/A   Clear
7:55 AM 69.8 °F - 59.0 °F 68% 30.04 in 10.0 mi North - - N/A   Clear
8:15 AM 69.8 °F - 59.0 °F 68% 30.03 in 10.0 mi North - - N/A   Clear
8:35 AM 69.8 °F - 59.0 °F 68% 30.03 in 10.0 mi North - - N/A   Clear
8:55 AM 71.6 °F - 59.0 °F 64% 30.02 in 10.0 mi North - - N/A   Clear
9:15 AM 71.6 °F - 59.0 °F 64% 30.02 in 10.0 mi SE 9.2 mph - N/A   Clear
9:35 AM 71.6 °F - 60.8 °F 69% 30.02 in 10.0 mi SSE 9.2 mph - N/A   Clear
9:55 AM 71.6 °F - 60.8 °F 69% 30.03 in 10.0 mi SSE 9.2 mph - N/A   Clear
10:15 AM 73.4 °F - 60.8 °F 65% 30.02 in 10.0 mi SE 10.4 mph - N/A   Clear
10:35 AM 73.4 °F - 60.8 °F 65% 30.02 in 10.0 mi SSE 10.4 mph - N/A   Clear
10:55 AM 75.2 °F - 60.8 °F 61% 30.02 in 10.0 mi SE 10.4 mph - N/A   Clear
11:15 AM 77.0 °F - 59.0 °F 54% 30.02 in 10.0 mi North - - N/A   Clear
11:35 AM 75.2 °F - 59.0 °F 57% 30.02 in 10.0 mi SSE 9.2 mph - N/A   Clear
11:55 AM 77.0 °F - 59.0 °F 54% 30.00 in 10.0 mi SSE 11.5 mph - N/A   Clear
12:15 PM 78.8 °F - 59.0 °F 51% 30.00 in 10.0 mi SSE 9.2 mph - N/A   Clear
12:35 PM 78.8 °F - 59.0 °F 51% 30.00 in 10.0 mi SSE 8.1 mph - N/A   Clear
12:55 PM 78.8 °F - 57.2 °F 47% 29.99 in 10.0 mi SE 10.4 mph 18.4 mph N/A   Clear
1:15 PM 80.6 °F 80.5 °F 55.4 °F 42% 29.99 in 10.0 mi South 11.5 mph - N/A   Clear
1:35 PM 82.4 °F 81.7 °F 55.4 °F 39% 29.98 in 10.0 mi South 9.2 mph - N/A   Clear
1:55 PM 82.4 °F 81.4 °F 53.6 °F 37% 29.97 in 10.0 mi SE 12.7 mph - N/A   Clear
2:15 PM 84.2 °F 83.0 °F 55.4 °F 37% 29.97 in 10.0 mi South 10.4 mph 17.3 mph N/A   Clear
2:35 PM 86.0 °F 84.2 °F 53.6 °F 33% 29.96 in 10.0 mi SE 9.2 mph - N/A   Clear
2:55 PM 82.4 °F 81.4 °F 53.6 °F 37% 29.95 in 10.0 mi North - - N/A   Clear
3:15 PM 86.0 °F - 51.8 °F 31% 29.95 in 10.0 mi SSE 11.5 mph - N/A   Clear
3:35 PM 84.2 °F - 51.8 °F 33% 29.94 in 10.0 mi North - - N/A   Clear
3:55 PM 84.2 °F - 51.8 °F 33% 29.94 in 10.0 mi North - - N/A   Clear
4:15 PM 84.2 °F - 51.8 °F 33% 29.92 in 10.0 mi North - - N/A   Clear
4:35 PM 87.8 °F - 50.0 °F 27% 29.91 in 10.0 mi East 9.2 mph - N/A   Clear
4:55 PM 87.8 °F - 50.0 °F 27% 29.91 in 10.0 mi SE 9.2 mph - N/A   Clear
5:15 PM 86.0 °F - 50.0 °F 29% 29.90 in 10.0 mi SE 10.4 mph - N/A   Clear
5:35 PM 87.8 °F - 50.0 °F 27% 29.90 in 10.0 mi SSE 10.4 mph 17.3 mph N/A   Clear
5:55 PM 87.8 °F - 50.0 °F 27% 29.90 in 10.0 mi SSE 12.7 mph - N/A   Clear
6:15 PM 86.0 °F - 50.0 °F 29% 29.90 in 10.0 mi SE 9.2 mph - N/A   Clear
6:35 PM 84.2 °F - 50.0 °F 30% 29.90 in 10.0 mi SE 10.4 mph - N/A   Clear
6:55 PM 84.2 °F - 51.8 °F 33% 29.89 in 10.0 mi SE 8.1 mph - N/A   Clear
7:15 PM 82.4 °F - 51.8 °F 35% 29.88 in 10.0 mi ESE 8.1 mph - N/A   Clear
7:35 PM 80.6 °F - 51.8 °F 37% 29.88 in 10.0 mi ESE 8.1 mph - N/A   Clear
7:55 PM 78.8 °F - 48.2 °F 34% 29.89 in 10.0 mi East 6.9 mph - N/A   Clear
8:15 PM 78.8 °F - 50.0 °F 36% 29.89 in 10.0 mi East 8.1 mph - N/A   Clear
8:35 PM 78.8 °F - 50.0 °F 36% 29.90 in 10.0 mi East 8.1 mph - N/A   Clear
8:55 PM 78.8 °F - 50.0 °F 36% 29.90 in 10.0 mi East 9.2 mph - N/A   Clear
9:15 PM 78.8 °F - 50.0 °F 36% 29.90 in 10.0 mi East 9.2 mph - N/A   Clear
9:35 PM 78.8 °F - 50.0 °F 36% 29.90 in 10.0 mi East 9.2 mph - N/A   Clear
9:55 PM 78.8 °F - 48.2 °F 34% 29.90 in 10.0 mi East 9.2 mph - N/A   Clear
10:15 PM 78.8 °F - 48.2 °F 34% 29.90 in 10.0 mi East 9.2 mph - N/A   Clear
10:35 PM 78.8 °F - 48.2 °F 34% 29.90 in 10.0 mi ESE 9.2 mph - N/A   Clear
10:55 PM 78.8 °F - 48.2 °F 34% 29.91 in 10.0 mi ESE 10.4 mph - N/A   Clear
11:15 PM 78.8 °F - 50.0 °F 36% 29.90 in 10.0 mi ESE 10.4 mph - N/A   Clear
11:35 PM 73.4 °F - 51.8 °F 47% 29.93 in 10.0 mi SSW 12.7 mph - N/A   Clear
11:55 PM 71.6 °F - 51.8 °F 50% 29.93 in 10.0 mi SE 4.6 mph - N/A   Clear